Time,TemperatureF,DewpointF,PressureIn,WindDirection,WindDirectionDegrees,WindSpeedMPH,WindSpeedGustMPH,Humidity,HourlyPrecipIn,Conditions,Clouds,dailyrainin,SoftwareType,DateUTC
2013-01-08 00:04:00,26.0,22.0,-100.00,WSW,237,1.0,3.0,88,0.00,,,0.00,,2013-01-08 05:04:00,
2013-01-08 00:12:00,26.0,22.0,-100.00,WSW,237,1.0,3.0,88,0.00,,,0.00,,2013-01-08 05:12:00,
2013-01-08 00:22:00,25.0,22.0,-100.00,NNW,343,1.0,2.0,88,0.00,,,0.00,,2013-01-08 05:22:00,
2013-01-08 00:33:00,25.0,22.0,-100.00,NNW,343,1.0,2.0,88,0.00,,,0.00,,2013-01-08 05:33:00,
2013-01-08 00:43:00,25.0,22.0,-100.00,NW,318,1.0,4.0,90,0.00,,,0.00,,2013-01-08 05:43:00,
2013-01-08 00:53:00,25.0,22.0,-100.00,NW,318,1.0,4.0,90,0.00,,,0.00,,2013-01-08 05:53:00,
2013-01-08 01:03:00,24.0,22.0,-100.00,WNW,285,0.0,3.0,89,0.00,,,0.00,,2013-01-08 06:03:00,
2013-01-08 01:12:00,24.0,22.0,-100.00,WNW,285,0.0,3.0,89,0.00,,,0.00,,2013-01-08 06:12:00,
2013-01-08 01:22:00,24.0,21.0,-100.00,SSW,205,1.0,3.0,90,0.00,,,0.00,,2013-01-08 06:22:00,
2013-01-08 01:33:00,24.0,21.0,-100.00,SSW,205,1.0,3.0,90,0.00,,,0.00,,2013-01-08 06:33:00,
2013-01-08 01:42:00,23.0,22.0,-100.00,NW,325,0.0,3.0,93,0.00,,,0.00,,2013-01-08 06:42:00,
2013-01-08 01:53:00,23.0,22.0,-100.00,NW,325,0.0,3.0,93,0.00,,,0.00,,2013-01-08 06:53:00,
2013-01-08 02:02:00,23.0,22.0,-100.00,WSW,254,0.0,1.0,94,0.00,,,0.00,,2013-01-08 07:02:00,
2013-01-08 02:12:00,23.0,22.0,-100.00,WSW,254,0.0,1.0,94,0.00,,,0.00,,2013-01-08 07:12:00,
2013-01-08 02:22:00,23.0,22.0,-100.00,WSW,254,0.0,1.0,94,0.00,,,0.00,,2013-01-08 07:22:00,
2013-01-08 02:42:00,22.0,21.0,-100.00,SW,219,2.0,4.0,95,0.00,,,0.00,,2013-01-08 07:42:00,
2013-01-08 02:52:00,22.0,21.0,-100.00,SW,219,2.0,4.0,95,0.00,,,0.00,,2013-01-08 07:52:00,
2013-01-08 03:02:00,22.0,21.0,-100.00,WSW,257,1.0,4.0,95,0.00,,,0.00,,2013-01-08 08:02:00,
2013-01-08 03:12:00,22.0,21.0,-100.00,WSW,257,1.0,4.0,95,0.00,,,0.00,,2013-01-08 08:12:00,
2013-01-08 03:22:00,22.0,21.0,-100.00,NNW,343,1.0,2.0,95,0.00,,,0.00,,2013-01-08 08:22:00,
2013-01-08 03:32:00,22.0,21.0,-100.00,NNW,343,1.0,2.0,95,0.00,,,0.00,,2013-01-08 08:32:00,
2013-01-08 03:42:00,22.0,20.0,-100.00,SW,222,1.0,2.0,95,0.00,,,0.00,,2013-01-08 08:42:00,
2013-01-08 03:53:00,22.0,20.0,-100.00,SW,222,1.0,2.0,95,0.00,,,0.00,,2013-01-08 08:53:00,
2013-01-08 04:02:00,21.0,20.0,-100.00,SW,220,2.0,4.0,96,0.00,,,0.00,,2013-01-08 09:02:00,
2013-01-08 04:12:00,21.0,20.0,-100.00,SW,220,2.0,4.0,96,0.00,,,0.00,,2013-01-08 09:12:00,
2013-01-08 04:22:00,21.0,20.0,-100.00,SSW,212,3.0,4.0,96,0.00,,,0.00,,2013-01-08 09:22:00,
2013-01-08 04:33:00,21.0,20.0,-100.00,SSW,212,3.0,4.0,96,0.00,,,0.00,,2013-01-08 09:33:00,
2013-01-08 04:42:00,21.0,20.0,-100.00,SW,222,3.0,5.0,96,0.00,,,0.00,,2013-01-08 09:42:00,
2013-01-08 04:53:00,21.0,20.0,-100.00,SW,222,3.0,5.0,96,0.00,,,0.00,,2013-01-08 09:53:00,
2013-01-08 05:03:00,21.0,20.0,-100.00,SW,219,2.0,4.0,96,0.00,,,0.00,,2013-01-08 10:03:00,
2013-01-08 05:12:00,21.0,20.0,-100.00,SW,219,2.0,4.0,96,0.00,,,0.00,,2013-01-08 10:12:00,
2013-01-08 05:22:00,21.0,20.0,-100.00,SW,216,4.0,7.0,97,0.00,,,0.00,,2013-01-08 10:22:00,
2013-01-08 05:33:00,21.0,20.0,-100.00,SW,216,4.0,7.0,97,0.00,,,0.00,,2013-01-08 10:33:00,
2013-01-08 05:42:00,20.0,20.0,-100.00,WSW,237,1.0,3.0,96,0.00,,,0.00,,2013-01-08 10:42:00,
2013-01-08 05:53:00,20.0,20.0,-100.00,WSW,237,1.0,3.0,96,0.00,,,0.00,,2013-01-08 10:53:00,
2013-01-08 06:02:00,21.0,20.0,-100.00,SSW,203,1.0,3.0,96,0.00,,,0.00,,2013-01-08 11:02:00,
2013-01-08 06:12:00,21.0,20.0,-100.00,SSW,203,1.0,3.0,96,0.00,,,0.00,,2013-01-08 11:12:00,
2013-01-08 06:23:00,21.0,21.0,-100.00,SW,236,1.0,3.0,96,0.00,,,0.00,,2013-01-08 11:23:00,
2013-01-08 06:33:00,21.0,21.0,-100.00,SW,236,1.0,3.0,96,0.00,,,0.00,,2013-01-08 11:33:00,
2013-01-08 06:42:00,21.0,20.0,-100.00,SW,233,3.0,5.0,96,0.00,,,0.00,,2013-01-08 11:42:00,
2013-01-08 06:53:00,21.0,20.0,-100.00,SW,233,3.0,5.0,96,0.00,,,0.00,,2013-01-08 11:53:00,
2013-01-08 07:03:00,21.0,20.0,-100.00,SW,216,2.0,4.0,96,0.00,,,0.00,,2013-01-08 12:03:00,
2013-01-08 07:12:00,21.0,20.0,-100.00,SW,216,2.0,4.0,96,0.00,,,0.00,,2013-01-08 12:12:00,
2013-01-08 07:22:00,21.0,20.0,-100.00,SW,224,2.0,4.0,97,0.00,,,0.00,,2013-01-08 12:22:00,
2013-01-08 07:33:00,21.0,20.0,-100.00,SW,224,2.0,4.0,97,0.00,,,0.00,,2013-01-08 12:33:00,
2013-01-08 07:43:00,20.0,19.0,-100.00,SW,230,2.0,5.0,96,0.00,,,0.00,,2013-01-08 12:43:00,
2013-01-08 07:53:00,20.0,19.0,-100.00,SW,230,2.0,5.0,96,0.00,,,0.00,,2013-01-08 12:53:00,
2013-01-08 08:03:00,20.0,19.0,-100.00,SW,220,2.0,4.0,96,0.00,,,0.00,,2013-01-08 13:03:00,
2013-01-08 08:13:00,20.0,19.0,-100.00,SW,220,2.0,4.0,96,0.00,,,0.00,,2013-01-08 13:13:00,
2013-01-08 08:22:00,20.0,19.0,-100.00,NW,311,1.0,2.0,96,0.00,,,0.00,,2013-01-08 13:22:00,
2013-01-08 08:33:00,20.0,19.0,-100.00,NW,311,1.0,2.0,96,0.00,,,0.00,,2013-01-08 13:33:00,
2013-01-08 08:43:00,21.0,20.0,-100.00,SW,234,1.0,3.0,96,0.00,,,0.00,,2013-01-08 13:43:00,
2013-01-08 08:53:00,21.0,20.0,-100.00,SW,234,1.0,3.0,96,0.00,,,0.00,,2013-01-08 13:53:00,
2013-01-08 09:03:00,22.0,20.0,-100.00,SSW,196,3.0,4.0,96,0.00,,,0.00,,2013-01-08 14:03:00,
2013-01-08 09:13:00,22.0,20.0,-100.00,SSW,196,3.0,4.0,96,0.00,,,0.00,,2013-01-08 14:13:00,
2013-01-08 09:23:00,23.0,21.0,-100.00,SSW,198,4.0,6.0,95,0.00,,,0.00,,2013-01-08 14:23:00,
2013-01-08 09:33:00,23.0,21.0,-100.00,SSW,198,4.0,6.0,95,0.00,,,0.00,,2013-01-08 14:33:00,
2013-01-08 09:43:00,25.0,23.0,-100.00,SSW,205,4.0,7.0,92,0.00,,,0.00,,2013-01-08 14:43:00,
2013-01-08 09:53:00,25.0,23.0,-100.00,SSW,205,4.0,7.0,92,0.00,,,0.00,,2013-01-08 14:53:00,
2013-01-08 10:03:00,28.0,24.0,-100.00,SW,223,3.0,5.0,85,0.00,,,0.00,,2013-01-08 15:03:00,
2013-01-08 10:12:00,28.0,24.0,-100.00,SW,223,3.0,5.0,85,0.00,,,0.00,,2013-01-08 15:12:00,
2013-01-08 10:23:00,30.0,24.0,-100.00,SW,217,4.0,7.0,79,0.00,,,0.00,,2013-01-08 15:23:00,
2013-01-08 10:33:00,30.0,24.0,-100.00,SW,217,4.0,7.0,79,0.00,,,0.00,,2013-01-08 15:33:00,
2013-01-08 10:43:00,31.0,25.0,-100.00,SSW,208,4.0,7.0,77,0.00,,,0.00,,2013-01-08 15:43:00,
2013-01-08 10:53:00,31.0,25.0,-100.00,SSW,208,4.0,7.0,77,0.00,,,0.00,,2013-01-08 15:53:00,
2013-01-08 11:03:00,33.0,25.0,-100.00,SSW,206,5.0,9.0,71,0.00,,,0.00,,2013-01-08 16:03:00,
2013-01-08 11:13:00,33.0,25.0,-100.00,SSW,206,5.0,9.0,71,0.00,,,0.00,,2013-01-08 16:13:00,
2013-01-08 11:23:00,36.0,27.0,-100.00,SSW,206,6.0,9.0,69,0.00,,,0.00,,2013-01-08 16:23:00,
2013-01-08 11:34:00,36.0,27.0,-100.00,SSW,206,6.0,9.0,69,0.00,,,0.00,,2013-01-08 16:34:00,
2013-01-08 11:43:00,39.0,28.0,-100.00,SSW,205,6.0,9.0,65,0.00,,,0.00,,2013-01-08 16:43:00,
2013-01-08 11:53:00,39.0,28.0,-100.00,SSW,205,6.0,9.0,65,0.00,,,0.00,,2013-01-08 16:53:00,
2013-01-08 12:03:00,41.0,29.0,-100.00,SSW,196,6.0,9.0,61,0.00,,,0.00,,2013-01-08 17:03:00,
2013-01-08 12:13:00,41.0,29.0,-100.00,SSW,196,6.0,9.0,61,0.00,,,0.00,,2013-01-08 17:13:00,
2013-01-08 12:23:00,45.0,29.0,-100.00,South,189,4.0,7.0,53,0.00,,,0.00,,2013-01-08 17:23:00,
2013-01-08 12:34:00,45.0,29.0,-100.00,South,189,4.0,7.0,53,0.00,,,0.00,,2013-01-08 17:34:00,
2013-01-08 12:43:00,46.0,28.0,-100.00,SSW,196,4.0,8.0,49,0.00,,,0.00,,2013-01-08 17:43:00,
2013-01-08 12:54:00,46.0,28.0,-100.00,SSW,196,4.0,8.0,49,0.00,,,0.00,,2013-01-08 17:54:00,
2013-01-08 13:04:00,48.0,28.0,-100.00,SSW,208,4.0,6.0,45,0.00,,,0.00,,2013-01-08 18:04:00,
2013-01-08 13:13:00,48.0,28.0,-100.00,SSW,208,4.0,6.0,45,0.00,,,0.00,,2013-01-08 18:13:00,
2013-01-08 13:23:00,48.0,28.0,-100.00,SSW,202,4.0,8.0,45,0.00,,,0.00,,2013-01-08 18:23:00,
2013-01-08 13:33:00,48.0,28.0,-100.00,SSW,202,4.0,8.0,45,0.00,,,0.00,,2013-01-08 18:33:00,
2013-01-08 13:43:00,50.0,29.0,-100.00,WSW,257,3.0,8.0,43,0.00,,,0.00,,2013-01-08 18:43:00,
2013-01-08 13:53:00,50.0,29.0,-100.00,WSW,257,3.0,8.0,43,0.00,,,0.00,,2013-01-08 18:53:00,
2013-01-08 14:03:00,51.0,29.0,-100.00,SSW,209,3.0,8.0,41,0.00,,,0.00,,2013-01-08 19:03:00,
2013-01-08 14:12:00,51.0,29.0,-100.00,SSW,209,3.0,8.0,41,0.00,,,0.00,,2013-01-08 19:12:00,
2013-01-08 14:23:00,52.0,28.0,-100.00,West,265,2.0,6.0,39,0.00,,,0.00,,2013-01-08 19:23:00,
2013-01-08 14:33:00,52.0,28.0,-100.00,West,265,2.0,6.0,39,0.00,,,0.00,,2013-01-08 19:33:00,
2013-01-08 14:43:00,56.0,27.0,-100.00,SW,229,3.0,8.0,33,0.00,,,0.00,,2013-01-08 19:43:00,
2013-01-08 14:53:00,56.0,27.0,-100.00,SW,229,3.0,8.0,33,0.00,,,0.00,,2013-01-08 19:53:00,
2013-01-08 15:03:00,55.0,28.0,-100.00,SW,216,3.0,6.0,34,0.00,,,0.00,,2013-01-08 20:03:00,
2013-01-08 15:12:00,55.0,28.0,-100.00,SW,216,3.0,6.0,34,0.00,,,0.00,,2013-01-08 20:12:00,
2013-01-08 15:23:00,56.0,27.0,-100.00,SSW,206,5.0,8.0,33,0.00,,,0.00,,2013-01-08 20:23:00,
2013-01-08 15:33:00,56.0,27.0,-100.00,SSW,206,5.0,8.0,33,0.00,,,0.00,,2013-01-08 20:33:00,
2013-01-08 15:43:00,56.0,26.0,-100.00,SSW,205,5.0,8.0,32,0.00,,,0.00,,2013-01-08 20:43:00,
2013-01-08 15:54:00,56.0,26.0,-100.00,SSW,205,5.0,8.0,32,0.00,,,0.00,,2013-01-08 20:54:00,
2013-01-08 16:03:00,57.0,26.0,-100.00,SSW,196,3.0,7.0,30,0.00,,,0.00,,2013-01-08 21:03:00,
2013-01-08 16:13:00,57.0,26.0,-100.00,SSW,196,3.0,7.0,30,0.00,,,0.00,,2013-01-08 21:13:00,
2013-01-08 16:23:00,57.0,25.0,-100.00,SSW,208,2.0,5.0,29,0.00,,,0.00,,2013-01-08 21:23:00,
2013-01-08 16:33:00,57.0,25.0,-100.00,SSW,208,2.0,5.0,29,0.00,,,0.00,,2013-01-08 21:33:00,
2013-01-08 16:43:00,56.0,25.0,-100.00,WSW,243,3.0,5.0,30,0.00,,,0.00,,2013-01-08 21:43:00,
2013-01-08 16:53:00,56.0,25.0,-100.00,WSW,243,3.0,5.0,30,0.00,,,0.00,,2013-01-08 21:53:00,
2013-01-08 17:04:00,55.0,26.0,-100.00,SE,134,2.0,5.0,33,0.00,,,0.00,,2013-01-08 22:04:00,
2013-01-08 17:12:00,55.0,26.0,-100.00,SE,134,2.0,5.0,33,0.00,,,0.00,,2013-01-08 22:12:00,
2013-01-08 17:23:00,53.0,28.0,-100.00,East,90,3.0,6.0,38,0.00,,,0.00,,2013-01-08 22:23:00,
2013-01-08 17:33:00,53.0,28.0,-100.00,East,90,3.0,6.0,38,0.00,,,0.00,,2013-01-08 22:33:00,
2013-01-08 17:43:00,52.0,29.0,-100.00,NE,48,2.0,6.0,41,0.00,,,0.00,,2013-01-08 22:43:00,
2013-01-08 17:53:00,52.0,29.0,-100.00,NE,48,2.0,6.0,41,0.00,,,0.00,,2013-01-08 22:53:00,
2013-01-08 18:03:00,48.0,29.0,-100.00,NNW,333,1.0,3.0,47,0.00,,,0.00,,2013-01-08 23:03:00,
2013-01-08 18:13:00,48.0,29.0,-100.00,NNW,333,1.0,3.0,47,0.00,,,0.00,,2013-01-08 23:13:00,
2013-01-08 18:23:00,47.0,29.0,-100.00,NNE,27,3.0,6.0,51,0.00,,,0.00,,2013-01-08 23:23:00,
2013-01-08 18:33:00,47.0,29.0,-100.00,NNE,27,3.0,6.0,51,0.00,,,0.00,,2013-01-08 23:33:00,
2013-01-08 18:43:00,45.0,30.0,-100.00,NE,45,3.0,7.0,55,0.00,,,0.00,,2013-01-08 23:43:00,
2013-01-08 18:53:00,45.0,30.0,-100.00,NE,45,3.0,7.0,55,0.00,,,0.00,,2013-01-08 23:53:00,
2013-01-08 19:03:00,41.0,29.0,-100.00,ENE,58,1.0,4.0,62,0.00,,,0.00,,2013-01-09 00:03:00,
2013-01-08 19:13:00,41.0,29.0,-100.00,ENE,58,1.0,4.0,62,0.00,,,0.00,,2013-01-09 00:13:00,
2013-01-08 19:22:00,39.0,29.0,-100.00,West,264,1.0,3.0,69,0.00,,,0.00,,2013-01-09 00:22:00,
2013-01-08 19:33:00,39.0,29.0,-100.00,West,264,1.0,3.0,69,0.00,,,0.00,,2013-01-09 00:33:00,
2013-01-08 19:43:00,38.0,29.0,-100.00,WNW,301,1.0,3.0,69,0.00,,,0.00,,2013-01-09 00:43:00,
2013-01-08 19:53:00,38.0,29.0,-100.00,WNW,301,1.0,3.0,69,0.00,,,0.00,,2013-01-09 00:53:00,
2013-01-08 20:02:00,38.0,29.0,-100.00,WNW,301,1.0,3.0,69,0.00,,,0.00,,2013-01-09 01:02:00,
2013-01-08 20:22:00,35.0,28.0,-100.00,WNW,301,1.0,4.0,74,0.00,,,0.00,,2013-01-09 01:22:00,
2013-01-08 20:33:00,35.0,28.0,-100.00,WNW,301,1.0,4.0,74,0.00,,,0.00,,2013-01-09 01:33:00,
2013-01-08 20:42:00,33.0,27.0,-100.00,West,272,1.0,6.0,79,0.00,,,0.00,,2013-01-09 01:42:00,
2013-01-08 20:53:00,33.0,27.0,-100.00,West,272,1.0,6.0,79,0.00,,,0.00,,2013-01-09 01:53:00,
2013-01-08 21:02:00,33.0,28.0,-100.00,West,274,1.0,4.0,83,0.00,,,0.00,,2013-01-09 02:02:00,
2013-01-08 21:12:00,33.0,28.0,-100.00,West,274,1.0,4.0,83,0.00,,,0.00,,2013-01-09 02:12:00,
2013-01-08 21:23:00,32.0,27.0,-100.00,West,263,1.0,2.0,82,0.00,,,0.00,,2013-01-09 02:23:00,
2013-01-08 21:33:00,32.0,27.0,-100.00,West,263,1.0,2.0,82,0.00,,,0.00,,2013-01-09 02:33:00,
2013-01-08 21:43:00,31.0,26.0,-100.00,West,278,1.0,3.0,83,0.00,,,0.00,,2013-01-09 02:43:00,
2013-01-08 21:53:00,31.0,26.0,-100.00,West,278,1.0,3.0,83,0.00,,,0.00,,2013-01-09 02:53:00,
2013-01-08 22:03:00,31.0,26.0,-100.00,NE,48,1.0,6.0,83,0.00,,,0.00,,2013-01-09 03:03:00,
2013-01-08 22:12:00,31.0,26.0,-100.00,NE,48,1.0,6.0,83,0.00,,,0.00,,2013-01-09 03:12:00,
2013-01-08 22:22:00,31.0,27.0,-100.00,ENE,58,1.0,5.0,84,0.00,,,0.00,,2013-01-09 03:22:00,
2013-01-08 22:33:00,31.0,27.0,-100.00,ENE,58,1.0,5.0,84,0.00,,,0.00,,2013-01-09 03:33:00,
2013-01-08 22:43:00,30.0,26.0,-100.00,WSW,253,0.0,3.0,85,0.00,,,0.00,,2013-01-09 03:43:00,
2013-01-08 22:53:00,30.0,26.0,-100.00,WSW,253,0.0,3.0,85,0.00,,,0.00,,2013-01-09 03:53:00,
2013-01-08 23:02:00,28.0,25.0,-100.00,WSW,248,1.0,2.0,88,0.00,,,0.00,,2013-01-09 04:02:00,
2013-01-08 23:12:00,28.0,25.0,-100.00,WSW,248,1.0,2.0,88,0.00,,,0.00,,2013-01-09 04:12:00,
2013-01-08 23:22:00,29.0,26.0,-100.00,NNE,30,1.0,3.0,88,0.00,,,0.00,,2013-01-09 04:22:00,
2013-01-08 23:33:00,29.0,26.0,-100.00,NNE,30,1.0,3.0,88,0.00,,,0.00,,2013-01-09 04:33:00,
2013-01-08 23:43:00,29.0,26.0,-100.00,SW,217,2.0,4.0,89,0.00,,,0.00,,2013-01-09 04:43:00,
2013-01-08 23:53:00,29.0,26.0,-100.00,SW,217,2.0,4.0,89,0.00,,,0.00,,2013-01-09 04:53:00,